Content
SEND FEEDBACK

Daily
Averages
Monthly
Summary
United States of America

ROANOKE, ALABAMA


Home > North America > United States > Alabama
Elevation: 251 meters     Latitude: 33 09N     Longitude: 085 18W

WEATHER
 
SELECT A DAY
Number of Records: 347,179;   Date Range: 6/23/00 - 9/3/14
 
SHARE

PRINT THIS DATA

[ ← Previous Day ]
WEATHER ALMANAC - 13 FEBRUARY, 2013
[ Next Day → ]
[ °F ]   °C
Weather ElementAverageHighLow
Temperature9.3 °C12.1 °C (10:55 am)4.7 °C (11:55 pm)
Dewpoint7 °C10.7 °C (8:35 am)1.8 °C (11:55 pm)
Humidity85.8 %100 % (5:55 am)70 % (3:35 pm)
Barometer1010.8 hPa1015.6 hPa (10:35 pm)1007.1 hPa (4:55 am)
Wind Speed12.7 km/h29.6 km/h (3:35 pm)
Wind Gust37 km/h (2:55 pm)
Weather ElementAverage
Visibility13.4 km
Wind DirectionSW (224.9 °)

Weather ElementTotal
Precipitation---
Heating Degree Days9.9 (Base 18.3)
Averaged from 71 records on 13 February, 2013
WEATHER CONDITIONS BREAKOUT
WIND DIRECTION BREAKOUT
WEATHER BY HOUR - 13 FEBRUARY, 2013
[ °F ]   °C
Local TimeTemperatureDewpointHumidityBarometerVisibilityWind DirectionWind SpeedGust SpeedPrecipitationEventsConditions
12:35 AM8.5 °C8 °C97 %1009.5 hPa16.1 kmESE (110°)5.6 km/hOvercast
12:55 AM8.6 °C8 °C96 %1009.5 hPa16.1 kmEast (90°)7.4 km/hOvercast
1:15 AM8.7 °C8.1 °C96 %1009.5 hPa16.1 kmEast (100°)5.6 km/hOvercast
1:35 AM8.8 °C8.3 °C97 %1009.1 hPa16.1 kmEast (80°)5.6 km/hOvercast
1:55 AM8.9 °C8.4 °C97 %1008.8 hPa16.1 kmCalmOvercast
2:15 AM9 °C8.5 °C97 %1008.8 hPa11.3 kmCalmOvercast
2:35 AM9 °C8.7 °C98 %1008.1 hPa8 kmESE (120°)9.3 km/hOvercast
2:55 AM9.1 °C8.9 °C99 %1008.5 hPa6.4 kmEast (100°)5.6 km/hOvercast
3:15 AM9.1 °C9 °C99 %1008.8 hPa4.8 kmCalmOvercast
3:35 AM9.2 °C9.1 °C99 %1007.8 hPa4.8 kmCalmLight Drizzle
3:55 AM9.2 °C9.1 °C99 %1007.5 hPa4.8 kmCalmOvercast
4:15 AM9.3 °C9.2 °C99 %1007.5 hPa6.4 kmCalmOvercast
4:35 AM9.3 °C9.2 °C99 %1007.5 hPa4 kmCalmRainRain
4:55 AM9.3 °C9.2 °C99 %1007.1 hPa4 kmCalmOvercast
5:15 AM9.5 °C9.3 °C99 %1007.8 hPa4 kmCalmOvercast
5:35 AM9.5 °C9.3 °C99 %1007.8 hPa3.2 kmCalmOvercast
5:55 AM9.5 °C9.5 °C100 %1008.1 hPa3.2 kmWSW (240°)5.6 km/hOvercast
6:15 AM9.6 °C9.5 °C99 %1008.8 hPa2.9 kmCalmRainRain
6:35 AM9.6 °C9.6 °C100 %1008.5 hPa2.9 kmCalmDrizzle
6:55 AM9.6 °C9.6 °C100 %1007.5 hPa2.9 kmCalmOvercast
7:15 AM9.7 °C9.7 °C100 %1009.1 hPa4 kmWest (270°)5.6 km/hOvercast
7:35 AM10.2 °C10.2 °C100 %1009.1 hPa4 kmWSW (250°)5.6 km/hOvercast
7:55 AM10.6 °C10.5 °C99 %1008.8 hPa8 kmWSW (250°)9.3 km/hOvercast
8:15 AM10.8 °C10.6 °C99 %1008.8 hPa16.1 kmWest (270°)14.8 km/hOvercast
8:35 AM11.2 °C10.7 °C97 %1009.1 hPa16.1 kmWSW (250°)14.8 km/hOvercast
8:55 AM11.3 °C10.1 °C92 %1008.8 hPa16.1 kmWest (260°)16.7 km/h27.8 km/hOvercast
9:15 AM11.4 °C10 °C91 %1009.8 hPa16.1 kmWest (270°)18.5 km/hOvercast
9:35 AM11.5 °C9.9 °C90 %1009.8 hPa16.1 kmWest (260°)13 km/hOvercast
9:55 AM11.5 °C9.8 °C89 %1010.2 hPa16.1 kmWest (280°)16.7 km/h25.9 km/hOvercast
10:15 AM11.7 °C9.5 °C86 %1010.5 hPa16.1 kmWest (270°)24.1 km/h33.3 km/hOvercast
10:35 AM11.7 °C9.3 °C85 %1011.2 hPa16.1 kmWest (260°)16.7 km/h29.6 km/hOvercast
10:55 AM12.1 °C9.2 °C82 %1010.5 hPa16.1 kmWest (280°)22.2 km/h33.3 km/hOvercast
11:15 AM11.7 °C8.8 °C82 %1010.5 hPa16.1 kmWNW (300°)24.1 km/hOvercast
11:35 AM11.5 °C8.5 °C82 %1009.5 hPa16.1 kmWest (280°)16.7 km/hOvercast
11:55 AM11.3 °C8.1 °C81 %1011.2 hPa16.1 kmWest (270°)22.2 km/h31.5 km/hOvercast
12:15 PM11.2 °C8 °C81 %1011.5 hPa16.1 kmWest (280°)18.5 km/hOvercast
12:35 PM11 °C8 °C82 %1011.5 hPa16.1 kmWest (270°)20.4 km/h27.8 km/hRainLight Rain
12:55 PM11 °C7.6 °C80 %1010.5 hPa16.1 kmWest (280°)24.1 km/h35.2 km/hMostly Cloudy
1:15 PM10.7 °C7.1 °C78 %1011.2 hPa16.1 kmWest (260°)22.2 km/h33.3 km/hMostly Cloudy
1:35 PM10.8 °C6.6 °C75 %1010.5 hPa16.1 kmWest (270°)20.4 km/h35.2 km/hMostly Cloudy
1:55 PM11 °C6.7 °C75 %1010.2 hPa16.1 kmWest (270°)24.1 km/h35.2 km/hOvercast
2:15 PM10.9 °C6.9 °C76 %1009.5 hPa16.1 kmWest (280°)14.8 km/hOvercast
2:35 PM10.7 °C6.7 °C76 %1010.2 hPa16.1 kmWNW (290°)22.2 km/h31.5 km/hOvercast
2:55 PM10.8 °C6.3 °C74 %1010.5 hPa16.1 kmWest (280°)20.4 km/h37 km/hMostly Cloudy
3:15 PM10.6 °C5.9 °C73 %1010.5 hPa16.1 kmNW (310°)27.8 km/h33.3 km/hMostly Cloudy
3:35 PM10.6 °C5.4 °C70 %1010.5 hPa16.1 kmWNW (300°)29.6 km/h35.2 km/hOvercast
3:55 PM10.3 °C5.4 °C72 %1011.2 hPa16.1 kmWNW (290°)20.4 km/h31.5 km/hOvercast
4:15 PM10.1 °C5.6 °C74 %1011.2 hPa16.1 kmWNW (300°)24.1 km/h33.3 km/hOvercast
4:35 PM9.9 °C5.1 °C72 %1011.5 hPa16.1 kmNW (310°)27.8 km/h35.2 km/hOvercast
4:55 PM9.6 °C5.4 °C75 %1011.9 hPa16.1 kmNW (310°)20.4 km/h31.5 km/hOvercast
5:15 PM9.5 °C5.5 °C76 %1012.2 hPa16.1 kmNW (310°)20.4 km/hOvercast
5:35 PM9.3 °C5.3 °C76 %1012.2 hPa16.1 kmWNW (300°)20.4 km/hOvercast
5:55 PM9.1 °C5.1 °C76 %1012.5 hPa16.1 kmWNW (300°)16.7 km/h25.9 km/hOvercast
6:15 PM9 °C5 °C76 %1012.5 hPa16.1 kmWNW (300°)20.4 km/hOvercast
6:35 PM9 °C5.1 °C77 %1012.9 hPa16.1 kmWNW (300°)14.8 km/hOvercast
6:55 PM8.8 °C5.3 °C79 %1012.9 hPa16.1 kmNW (310°)9.3 km/hOvercast
7:15 PM8.7 °C5.3 °C79 %1013.2 hPa16.1 kmNW (310°)13 km/hOvercast
7:35 PM8.7 °C4.9 °C77 %1013.5 hPa16.1 kmNNW (340°)18.5 km/h31.5 km/hOvercast
7:55 PM8.3 °C4 °C74 %1013.9 hPa16.1 kmNNW (340°)18.5 km/h37 km/hOvercast
8:15 PM8 °C3.4 °C73 %1014.2 hPa16.1 kmNNW (330°)18.5 km/h37 km/hOvercast
8:35 PM7.5 °C3.2 °C74 %1014.6 hPa16.1 kmNW (320°)16.7 km/hScattered Clouds
8:55 PM7 °C2.8 °C75 %1014.6 hPa16.1 kmNNW (340°)9.3 km/hClear
9:15 PM6.5 °C2.7 °C77 %1014.9 hPa16.1 kmNNW (330°)7.4 km/hClear
9:35 PM6.2 °C2.5 °C77 %1014.9 hPa16.1 kmNNW (330°)13 km/hClear
9:55 PM5.9 °C2.4 °C78 %1014.9 hPa16.1 kmNorth (350°)7.4 km/hClear
10:15 PM5.8 °C2.5 °C79 %1015.2 hPa16.1 kmNNW (340°)9.3 km/hClear
10:35 PM5.3 °C2.5 °C82 %1015.6 hPa16.1 kmNNW (340°)9.3 km/hClear
10:55 PM5.2 °C2.5 °C83 %1015.2 hPa16.1 kmNNW (330°)7.4 km/hClear
11:15 PM4.9 °C2.2 °C83 %1015.2 hPa16.1 kmNNW (330°)9.3 km/hClear
11:35 PM4.8 °C2 °C82 %1015.6 hPa16.1 kmNNW (330°)9.3 km/hClear
11:55 PM4.7 °C1.8 °C82 %1015.6 hPa16.1 kmNNW (330°)11.1 km/hClear
Hourly data recorded from KLGC, located 0 kilometers away from Roanoke, Alabama







STORIES FROM OUR PARTNERS